RH
33 42 52 47 36 16 20 29 28 23 23 46 46 39 38 55 59 69 69 66 61 59 53 56 52 47 42 40 39 38 38 38 37 36 35 36 38 36 32 26 24 20 17 14
33 44 31 32 34 34 32 29 24 26 19 47 44 46 41 55 56 57 59 63 62 59 57 55 53 50 45 44 41 40 39 40 38 37 35 35 36 37 34 31 25 22 20 17
45 42 32 35 37 38 38 39 30 24 21 30 26 32 24 39 48 49 51 53 55 56 56 54 51 50 49 48 44 41 39 40 38 38 38 38 37 38 39 37 30 24 21 20
41 31 34 38 41 36 48 36 35 37 37 44 26 39 24 20 46 49 50 53 54 54 50 50 50 49 51 51 44 40 39 39 38 37 37 36 41 42 40 34 33 30 24 22
40 29 28 44 37 31 42 31 34 41 63 59 39 54 37 26 27 41 50 46 49 51 49 50 49 49 50 47 46 43 40 40 40 36 32 34 39 36 35 35 34 32 30 25
31 23 24 30 28 33 41 38 51 62 69 76 42 37 32 36 55 45 45 41 46 49 47 47 48 48 51 50 49 46 42 42 40 39 36 33 34 36 40 38 34 34 33 31
47 32 26 27 32 34 41 52 92 92 88 85 47 46 42 90 82 79 73 68 48 47 48 50 51 52 56 53 50 46 44 47 49 45 38 35 31 32 36 38 35 36 35 35
68 79 34 27 37 45 55 58 94 94 80 61 51 72 68 91 83 78 78 64 52 48 48 52 53 55 54 55 51 50 45 45 44 43 41 39 34 34 30 31 33 33 32 33
96 91 32 35 37 50 55 70 64 97 97 96 78 74 94 71 77 82 90 85 79 63 56 60 58 57 56 56 51 46 45 47 46 45 43 43 40 38 35 36 37 38 39 40
89 97 47 37 33 41 77 59 96 97 96 96 87 88 93 91 93 93 95 99 96 89 82 78 70 61 59 52 48 46 46 47 46 46 44 43 41 40 41 42 42 41 43 42
90 99 84 66 66 75 60 75 82 97 97 96 96 98 95 96 94 95 94 96 98 98 97 94 89 71 59 52 50 50 50 48 46 43 43 43 43 41 41 40 40 41 42 43
95 99 97 87 85 84 85 90 91 96 95 96 97 98 94 94 94 93 94 94 92 94 94 93 93 88 76 65 58 54 51 47 46 45 44 44 45 44 44 43 44 45 46 47
98 97 96 83 83 79 74 90 94 96 97 95 96 98 89 88 91 92 95 95 95 92 91 91 91 94 93 76 64 56 52 49 48 47 47 47 48 48 49 49 49 49 49 49
98 98 91 87 79 96 95 93 89 95 96 91 99 96 91 90 93 92 93 95 95 94 94 94 94 96 97 93 86 80 71 62 57 54 53 54 55 55 54 54 53 52 52 50
99 97 98 89 92 93 94 95 92 96 97 99 99 97 96 95 95 95 94 92 90 92 91 93 94 95 96 96 95 96 96 95 90 80 72 68 67 67 65 62 58 55 52 49
98 96 97 95 91 92 95 95 95 94 96 96 96 97 96 95 94 94 94 93 93 93 92 93 94 94 95 96 96 95 94 94 95 95 94 94 92 87 84 80 75 69 62 57
96 96 96 96 91 95 94 98 95 95 94 97 98 97 95 94 94 95 95 94 94 94 94 94 94 96 96 95 95 95 95 93 91 88 85 81 72 67 60 64 71 77 69 55
95 95 96 96 95 97 98 94 72 92 96 95 95 96 96 96 93 95 95 95 94 94 94 94 94 94 94 93 95 95 94 94 94 94 92 89 81 72 57 59 65 65 71 70
87 95 96 97 98 99 96 93 95 97 99 96 96 95 94 92 94 95 90 83 89 90 86 87 87 85 89 94 86 86 91 92 94 94 92 76 62 62 63 70 73 72 77 80
78 75 93 96 98 99 96 92 93 95 97 95 95 94 94 71 86 81 81 75 68 71 70 74 74 71 74 71 66 78 80 77 80 67 64 63 64 68 70 70 70 72 76 84
89 91 97 96 99 99 94 93 90 100 98 86 92 92 90 96 92 87 66 60 66 59 62 60 62 68 68 68 68 78 78 82 69 73 73 71 68 68 69 74 77 77 80 92
92 99 97 87 98 99 83 75 78 97 81 83 87 86 91 84 84 70 62 66 59 68 66 65 75 73 75 82 87 86 84 80 73 68 72 74 71 67 66 71 79 84 90 96
95 100 100 87 100 92 94 90 94 85 89 90 92 78 83 86 79 71 70 66 66 71 58 57 71 81 68 63 70 82 80 79 75 70 80 84 83 83 81 75 77 91 96 100
84 89 91 90 93 91 85 94 84 86 94 92 77 85 84 88 82 79 77 70 75 66 60 66 80 72 73 76 80 83 86 86 91 98 93 92 93 89 87 88 86 93 99 100
98 91 100 94 81 80 85 86 94 79 81 80 76 80 82 84 83 78 85 73 83 77 68 83 89 80 81 83 86 80 96 75 99 94 98 100 100 95 88 89 88 97 96 100
100 99 100 96 76 90 88 85 88 94 86 83 95 87 86 83 87 85 91 79 89 88 95 82 82 86 89 91 88 89 85 84 93 99 95 96 95 98 100 97 92 80 83 85
Wind_Speed
4 4 8 13 14 12 6 6 7 3 6 7 14 19 15 9 4 9 11 12 13 13 11 21 29 34 35 34 31 34 34 34 34 34 34 31 30 29 27 25 25 25 24 23
3 13 15 11 14 13 13 9 18 6 3 7 5 16 12 10 12 17 18 15 15 13 13 18 26 32 36 35 34 35 35 35 35 34 31 31 32 26 26 25 24 23 22 22
10 10 5 9 14 13 15 16 12 15 0 4 3 11 7 8 6 13 14 18 17 22 21 18 24 28 29 34 36 36 36 36 34 32 29 30 25 27 26 24 24 22 22 21
7 10 11 11 10 11 17 7 13 12 4 8 6 15 9 6 8 12 16 17 19 20 19 18 21 24 27 30 35 35 35 34 32 31 31 34 27 26 26 28 25 23 21 21
9 2 4 7 18 7 6 6 5 3 4 2 5 2 4 4 5 9 18 21 21 19 20 20 21 26 26 34 34 34 34 33 32 30 32 34 29 22 30 27 26 24 21 20
13 3 4 6 2 3 6 3 5 4 2 3 12 9 18 6 3 6 6 14 17 19 19 19 27 30 27 30 31 31 32 30 31 31 32 32 31 27 31 30 28 24 22 20
5 6 3 3 3 2 5 4 1 2 1 8 3 8 9 8 10 7 13 13 10 14 16 17 17 21 25 27 28 30 29 28 29 33 31 28 28 30 32 30 30 27 24 21
3 8 6 2 3 6 5 10 5 6 5 3 3 7 4 4 7 12 13 8 10 11 11 13 14 19 22 25 30 27 30 25 22 22 22 23 26 29 29 29 27 26 24 21
3 6 0 3 2 1 4 5 3 3 1 2 4 1 4 18 20 17 17 17 13 9 9 9 13 18 19 23 26 27 25 20 18 19 21 21 25 26 26 24 23 21 20 19
4 7 3 3 1 1 4 2 3 3 5 6 4 1 5 18 18 15 17 14 12 11 11 8 10 16 18 23 23 21 19 19 18 19 21 22 22 22 23 23 22 20 20 19
8 8 3 2 6 8 3 4 4 2 4 3 2 1 9 10 11 10 12 13 12 11 10 9 12 15 18 19 19 18 18 18 18 18 18 19 21 21 20 20 20 19 18 17
3 3 4 11 1 1 2 1 7 4 5 4 1 3 10 12 14 10 10 10 11 12 12 11 16 19 17 16 17 18 18 17 15 14 14 14 15 15 15 16 16 16 16 15
3 3 3 5 4 4 3 5 6 8 5 6 4 3 10 13 14 15 10 10 9 12 13 13 20 20 21 19 15 13 13 13 11 10 11 10 10 11 11 12 13 14 14 14
6 3 7 11 11 5 4 8 9 5 4 3 3 4 11 14 14 14 15 9 12 13 14 13 13 16 18 18 16 14 11 7 5 6 7 7 8 8 9 10 12 13 14 15
3 5 4 5 10 9 6 9 17 9 7 3 4 6 8 10 9 9 10 14 16 16 16 14 12 16 16 17 17 12 9 6 4 3 4 5 7 9 11 12 13 13 14 17
2 4 3 4 13 19 21 15 8 11 6 10 9 8 6 5 8 8 10 12 13 12 11 10 11 11 12 13 13 13 14 14 12 11 12 13 14 15 17 18 18 18 18 20
3 2 2 3 15 7 8 11 10 9 10 3 5 2 6 9 9 5 6 9 9 9 8 8 9 11 12 14 15 14 14 13 12 13 16 18 19 21 22 23 23 23 25 26
5 3 2 3 7 3 2 5 13 13 9 8 5 5 4 5 9 4 2 9 9 8 7 7 9 11 14 16 15 16 15 15 15 16 17 19 21 23 25 25 25 25 25 25
14 3 2 1 4 5 2 4 3 1 5 11 8 6 6 8 5 1 11 11 9 9 12 13 15 16 17 15 15 15 16 16 17 18 20 21 21 22 22 24 25 26 25 25
12 15 5 4 4 3 1 6 9 2 4 10 8 7 9 11 5 2 10 11 14 15 17 17 18 17 16 18 20 18 17 16 17 20 22 22 22 22 23 23 24 25 26 27
7 5 8 6 4 2 3 10 5 2 3 11 7 6 7 5 4 8 13 14 14 18 18 21 21 20 20 23 25 21 19 17 22 22 22 22 22 23 24 25 24 24 24 24
6 5 4 3 3 1 9 3 2 3 6 8 7 6 7 9 7 10 11 12 18 14 18 20 18 17 20 21 23 22 21 22 22 25 26 26 27 27 27 26 26 25 24 26
4 1 1 2 1 3 2 6 4 2 6 7 7 10 10 11 11 13 10 13 16 15 19 22 17 17 22 24 22 22 24 26 28 28 28 28 28 28 29 28 28 28 27 26
7 4 2 3 3 3 7 3 4 3 4 4 5 8 9 10 11 12 11 15 14 14 20 19 16 17 20 22 22 24 22 23 26 27 29 28 26 26 25 26 28 28 29 28
3 3 2 5 5 8 3 3 2 10 6 7 12 11 11 10 11 13 9 17 14 14 18 17 17 20 21 23 24 25 22 28 23 23 24 24 22 24 26 27 29 29 31 27
1 4 2 4 6 5 8 6 6 5 9 10 9 11 15 15 11 17 14 19 17 18 15 20 19 20 23 25 27 27 27 27 26 24 22 20 20 18 18 22 26 24 26 27
Wind_Direction
213 185 204 202 214 242 220 229 240 225 217 175 223 241 234 192 174 181 187 192 189 182 161 154 162 169 174 173 170 170 167 165 165 160 153 149 145 145 144 143 142 141 138 136
307 247 249 223 228 233 241 251 255 274 247 195 243 256 245 178 206 203 194 189 186 169 161 162 162 166 172 171 174 173 173 170 171 169 164 157 150 148 145 145 144 143 141 138
203 226 167 216 244 241 243 235 257 248 134 236 9 274 246 221 204 206 207 200 190 180 174 172 169 168 164 168 173 174 175 175 177 174 168 157 151 147 144 149 146 146 146 141
236 254 252 241 237 219 259 215 241 244 147 249 157 273 217 213 210 208 208 199 196 186 180 171 167 165 163 166 174 178 178 178 179 177 173 166 157 152 160 156 151 148 148 143
249 257 246 240 236 188 257 344 241 190 167 55 215 304 330 188 238 217 209 204 196 185 175 171 166 160 162 170 176 182 182 183 181 182 182 176 168 168 161 156 152 151 149 147
250 251 232 216 123 194 128 125 45 42 71 230 228 201 269 223 291 348 347 219 188 176 171 166 161 158 160 167 173 179 179 182 183 187 186 185 178 170 162 162 159 156 154 151
306 230 233 158 133 29 138 113 298 315 179 237 217 189 257 356 357 325 310 309 167 157 152 152 154 153 148 154 164 173 177 176 187 190 190 191 188 180 173 171 166 161 159 159
260 313 175 184 199 194 209 159 185 215 200 257 135 222 312 295 332 6 11 18 88 121 135 144 144 142 146 153 166 168 178 172 179 186 190 193 192 186 183 181 175 171 168 166
236 258 136 43 358 60 197 224 219 326 280 291 217 354 236 11 12 15 21 32 33 59 94 104 120 134 141 149 164 173 173 167 175 182 189 191 189 187 186 182 182 177 175 173
296 279 3 332 260 56 128 327 118 206 214 220 262 286 326 2 358 9 20 21 22 27 43 63 87 116 131 153 162 167 164 157 157 166 173 176 182 184 183 182 181 183 179 183
191 216 281 48 211 187 134 205 197 237 229 232 245 210 359 338 0 15 27 32 29 34 32 38 54 98 131 149 154 157 157 153 150 151 156 161 166 168 171 174 179 183 188 193
226 274 246 231 165 59 33 302 197 211 211 236 260 111 355 3 8 19 22 43 47 48 47 48 48 63 91 127 148 154 157 157 158 166 169 171 173 179 185 191 194 197 202 206
182 228 300 310 6 14 82 37 341 314 285 238 219 117 360 12 16 12 19 30 44 53 50 45 47 49 50 72 92 119 137 144 156 169 176 183 194 198 200 202 206 212 217 222
173 221 215 263 294 70 49 13 328 250 256 289 42 90 8 8 6 8 20 46 48 51 52 49 44 42 44 47 55 64 74 94 137 173 189 197 210 221 228 230 230 232 234 237
199 246 202 291 98 89 81 51 37 62 321 45 77 80 6 2 353 358 37 43 42 37 36 36 35 35 36 36 31 28 21 14 3 311 271 262 259 257 256 256 252 249 248 249
238 256 139 101 98 99 69 38 56 43 44 81 82 66 352 356 13 37 36 39 38 32 28 17 13 20 13 3 354 350 347 343 340 333 317 308 297 289 279 274 270 266 262 259
312 279 180 211 155 166 43 19 60 71 39 28 56 328 343 5 8 7 38 38 24 11 4 357 352 344 338 334 333 326 323 319 310 304 301 297 293 290 287 285 279 272 271 268
342 318 272 97 160 211 199 36 85 79 56 55 56 14 356 355 332 281 76 14 3 350 340 333 332 325 318 315 318 319 313 303 292 288 288 289 286 284 282 279 275 273 268 263
15 344 45 121 52 132 74 14 331 350 67 28 8 5 359 339 295 299 13 358 335 327 329 323 322 319 315 311 313 307 298 291 285 280 279 280 279 278 279 278 275 274 269 265
18 29 59 44 90 112 315 317 326 135 187 10 341 351 360 345 333 327 346 334 327 332 335 334 337 335 331 325 323 313 301 294 283 293 290 288 284 279 276 279 281 282 278 269
353 10 37 27 94 84 328 328 329 182 337 334 342 347 337 323 281 310 325 317 330 325 327 326 328 322 325 326 321 308 304 297 306 308 306 301 297 291 287 281 277 277 276 272
32 348 16 354 78 108 348 346 38 322 308 314 325 325 318 301 303 316 309 326 318 327 330 325 320 327 322 325 322 307 304 315 318 315 309 304 300 295 290 286 281 275 272 272
41 20 285 91 216 216 299 129 156 217 282 297 336 313 311 309 314 309 315 315 307 320 317 312 309 322 317 315 312 309 307 312 309 307 303 301 299 295 291 284 280 274 270 266
348 16 63 18 286 244 227 186 160 220 247 279 288 299 299 301 301 305 301 307 295 306 315 308 308 310 304 307 307 305 312 316 307 302 299 297 295 290 286 280 277 274 271 265
218 4 325 278 303 328 12 248 307 332 293 293 307 303 293 294 296 299 295 303 284 296 308 305 300 298 300 305 307 311 301 316 298 301 293 282 280 280 281 276 275 272 274 266
196 209 121 243 222 187 264 277 291 290 294 302 297 307 292 298 289 297 292 300 288 290 301 303 297 297 298 301 306 308 310 311 302 297 293 285 282 276 267 270 276 273 271 272